Regional Weather Roundup
Issued by NWS Jackson, KY

Home | Current Version | Previous Version | Graphics & Text | Print | Product List | Glossary On
Versions: 1 2 3 4 5 6 7 8 9 10 11 12 13 14 15 16 17 18 19 20 21 22 23 24 25 26 27 28 29 30 31 32 33 34 35 36 37 38 39 40 41 42 43 44 45 46 47 48 49 50
000
ASUS43 KJKL 211410
RWRJKL

EAST KENTUCKY HOURLY WEATHER ROUNDUP
NATIONAL WEATHER SERVICE JACKSON KY
1000 AM EDT THU MAY 21 2015

NOTE: "FAIR" INDICATES FEW OR NO CLOUDS BELOW 12,000 FEET WITH
NO SIGNIFICANT WEATHER AND/OR OBSTRUCTIONS TO VISIBILITY.

* THESE REPORTS ARE NOT UNDER NWS QUALITY CONTROL AND MAY NOT
  REPORT WEATHER SUCH AS PRECIPITATION AND FOG.

KYZ079-080-083-085-087-088-110-112-115-119-120-211500
...EASTERN KENTUCKY...

CITY           SKY/WX    TMP DP  RH WIND       PRES   REMARKS
JACKSON        LGT RAIN  52  50  93 VRB5      30.01R FOG
LONDON         CLOUDY    55  48  77 NW8       30.04R
SOMERSET*      CLOUDY    52  50  93 NW7       30.07R
MONTICELLO*    CLOUDY    55  54  94 NW8       30.09R
MIDDLESBORO*   CLOUDY    58  53  84 NW3       30.02R
HARLAN APT*    CLOUDY    55  55 100 NW3       30.01R
HAZARD APT*    DRIZZLE   55  55 100 W6        30.01R
BLACK MTN*       N/A     50  50 100 CALM        N/A
PIKEVILLE APT* CLOUDY    52  52 100 W3        29.99R FOG
BIG SANDY*     CLOUDY    52  52  99 NW3       30.00R FOG
MOREHEAD APT*  CLOUDY    52  46  82 NW9G17    30.04R HAZE
$$

KYZ035-036-041-042-044-050-067-078-099-211500
...CENTRAL KENTUCKY...

CITY           SKY/WX    TMP DP  RH WIND       PRES   REMARKS
MT STERLING*   RAIN      50  50 100 N6        30.05R
FLEMING/MASON* CLOUDY    48  48 100 N5        30.04R FOG
DANVILLE*      CLOUDY    52  48  87 NW6       30.07R
RICHMOND*      CLOUDY    50  48  93 NW9       30.04R
LEXINGTON      CLOUDY    53  48  83 NW7       30.05R
FRANKFORT      CLOUDY    54  45  71 NW8       30.04S
$$

KYZ091>093-OHZ055-061-077-WVZ005-015-034-035-042-211500
...SOUTHERN OHIO/WEST VIRGINIA...

CITY           SKY/WX    TMP DP  RH WIND       PRES   REMARKS
COVINGTON      CLOUDY    52  44  74 N6        30.05R
COLUMBUS       CLOUDY    51  41  68 N9        30.02S
DAYTON         CLOUDY    51  40  65 N10       30.06R
WILMINGTON     CLOUDY    51  43  74 VRB5      30.02S
HUNTINGTON     CLOUDY    49  49 100 N6        29.99R FOG
CHARLESTON     LGT RAIN  54  52  93 N5        29.96R VSB 1
PINEVILLE*     RAIN      58  58 100 MISG      30.00R
BECKLEY        LGT RAIN  56  53  90 N5        29.95S FOG
BLUEFIELD      CLOUDY    57  53  86 CALM      29.96S FOG
$$

VAZ002-007-008-TNZ017-027-036-066-071-211500
...SOUTHWEST VIRGINIA/EAST TENNESSEE...

CITY           SKY/WX    TMP DP  RH WIND       PRES   REMARKS
WISE*          CLOUDY    55  55 100 W8        30.00S
JONESVILLE*    CLOUDY    59  57  94 W6        30.02R
ABINGDON*      CLOUDY    61  60  98 CALM      29.98R
BRISTOL        CLOUDY    65  60  84 W12       29.97R
KNOXVILLE      PTSUNNY   65  57  75 W13       30.00R
OAK RIDGE      CLOUDY    65  58  78 VRB5      30.02R
CROSSVILLE     CLOUDY    54  52  93 NW7       30.06R FOG
NASHVILLE      CLOUDY    53  50  89 NW10      30.11R
$$

...KEY TO REMARKS...
VSB - VISIBILITY IN MILES
WCI - WIND CHILL INDEX
HX  - HEAT INDEX

$$


USA.gov is the U.S. government's official web portal to all federal, state and local government web resources and services.